Theta_e
316 316 316 316 316 315 315 315 315 315 314 314 314 314 314 313 313 313 313 313 313 313 313 313 313 313 313 313 313 313 313 313 313 313 313 313 313 313 313 313 314 315
315 315 315 315 315 315 315 315 314 314 314 314 314 314 314 313 313 313 313 313 313 313 313 313 313 313 313 313 312 312 312 312 312 312 312 312 312 312 312 312 313 314
315 315 315 315 315 315 315 315 315 314 314 314 314 314 314 313 313 313 313 313 313 313 313 313 313 313 312 312 312 312 312 312 312 311 311 311 311 311 311 311 312 312
315 315 315 315 315 315 315 315 315 314 314 313 313 313 313 313 313 313 313 313 313 313 313 313 313 313 313 312 312 312 312 312 312 311 311 311 311 311 311 310 310 310
315 315 315 315 315 314 314 314 314 314 314 314 313 313 313 313 313 313 313 313 313 313 313 313 313 313 313 312 312 312 312 312 312 312 311 311 311 311 311 310 310 310
315 315 314 314 314 314 314 314 314 314 314 314 313 313 313 313 313 313 313 313 312 312 312 312 312 312 312 312 312 312 312 312 312 312 312 311 311 311 311 310 310 310
314 314 314 314 314 314 314 314 314 314 314 314 313 313 313 313 313 313 313 313 313 313 313 313 313 313 312 312 312 312 312 312 312 312 312 312 311 311 311 311 310 310
314 314 314 314 314 314 314 314 314 313 313 313 313 313 313 313 313 313 312 312 312 312 312 312 312 312 312 312 312 312 312 312 312 312 311 311 311 311 311 311 310 310
314 313 313 313 313 313 313 313 313 313 313 313 312 312 312 312 312 312 312 312 312 312 312 312 312 312 312 312 311 312 311 311 311 311 311 311 311 311 311 310 310 310
313 313 313 313 312 312 312 312 312 312 312 312 312 312 312 312 312 312 311 311 311 311 311 311 311 311 311 311 311 311 311 311 311 311 311 311 311 310 310 310 310 310
313 313 312 312 312 312 312 312 312 312 312 312 312 312 312 312 311 311 311 311 311 311 311 311 311 311 311 311 311 311 311 311 311 311 311 311 310 310 310 310 309 309
312 312 312 311 311 311 311 311 311 311 311 311 310 310 310 310 310 310 309 309 309 309 309 309 309 309 309 309 309 309 309 309 309 309 308 308 308 308 308 308 308 308
311 311 310 310 310 310 310 310 310 309 309 309 309 308 307 307 306 306 305 305 305 305 305 304 304 305 304 304 304 304 304 304 304 304 304 304 304 305 305 305 305 306
309 309 309 308 308 308 308 308 308 307 307 306 306 305 304 304 303 303 303 302 302 302 302 302 302 302 302 302 302 302 302 302 302 302 302 302 302 302 302 302 303 303
307 306 305 305 305 305 305 305 304 304 304 303 303 303 303 303 303 302 302 302 302 302 301 301 301 301 301 300 300 300 300 300 300 300 300 300 300 301 301 301 301 301
304 303 302 302 302 302 302 302 302 302 302 302 302 303 303 303 302 302 302 301 301 301 301 300 300 300 300 299 299 299 299 299 299 299 299 299 299 299 299 299 299 299
301 301 301 301 301 301 301 301 302 302 302 303 303 303 303 302 301 300 300 299 299 299 299 299 298 298 298 297 297 297 297 297 297 297 297 297 297 297 298 298 298 298
301 301 301 301 301 301 302 302 302 303 303 303 303 303 302 300 299 298 298 298 297 297 297 297 297 296 296 296 296 295 295 295 295 295 295 295 295 296 296 296 296 296
301 301 301 301 302 302 302 302 303 302 302 301 301 300 299 298 297 297 297 296 296 296 296 296 296 296 296 296 295 295 295 295 295 295 295 295 295 295 295 295 295 295
301 301 301 302 302 302 302 301 301 300 299 298 297 297 296 296 296 296 296 296 296 296 296 296 296 295 295 295 295 295 295 295 295 295 294 295 295 294 295 295 295 295
301 301 301 301 300 300 299 298 297 297 296 296 296 296 296 295 295 295 295 295 295 295 295 296 295 295 295 295 295 294 294 294 294 294 294 294 294 294 294 294 294 294
300 300 299 298 298 297 297 296 296 296 295 295 295 295 295 295 295 295 295 295 295 295 295 295 295 295 295 295 294 294 294 294 293 294 294 294 294 294 294 294 294 294
298 297 297 296 296 296 296 296 295 295 295 295 295 295 295 295 295 295 295 295 295 295 295 295 295 295 294 294 294 293 293 293 293 293 293 293 293 294 294 294 294 294
296 296 295 295 295 295 295 295 295 294 294 294 294 294 294 294 294 294 295 294 294 294 294 294 294 295 294 293 293 293 292 292 292 292 292 293 293 293 293 293 294 294
295 295 295 294 294 294 294 294 294 294 294 294 294 294 294 294 294 294 294 294 293 293 293 293 293 294 293 293 292 292 292 291 291 291 292 292 292 292 293 293 293 293
294 294 294 294 294 294 293 293 293 293 293 293 293 293 293 293 293 292 293 293 293 292 293 292 292 293 293 293 292 292 292 291 290 290 291 291 292 292 292 293 292 293
Wind_Speed
6 7 8 9 10 11 13 15 18 20 21 21 20 20 19 18 17 18 19 19 20 21 22 23 24 25 25 26 28 29 30 31 32 33 35 36 37 38 40 41 41 42
6 7 8 9 10 10 11 13 15 18 20 20 20 19 18 18 17 17 17 17 18 19 19 20 21 21 22 23 24 25 26 28 29 30 32 33 34 36 38 39 40 41
7 7 8 9 9 10 11 12 13 15 17 18 18 18 18 17 17 17 16 16 16 16 17 18 19 19 20 21 22 23 24 25 26 27 29 30 31 33 35 36 38 40
7 8 8 9 9 10 11 12 13 14 15 16 17 17 17 17 17 17 17 16 16 16 17 18 19 20 21 21 22 23 23 24 25 26 28 28 29 31 32 33 36 37
9 9 9 10 10 10 10 11 12 13 13 14 14 15 15 15 16 17 17 17 17 17 18 18 20 21 22 22 23 23 24 25 25 26 28 29 29 30 31 32 34 35
10 10 10 9 9 9 9 10 11 12 12 12 12 12 12 13 13 14 14 15 15 15 16 17 18 19 21 22 22 23 24 24 25 26 28 30 30 31 31 32 34 35
9 9 8 7 8 8 8 9 9 10 10 10 11 11 11 11 11 12 12 12 13 13 14 15 16 17 18 20 20 21 22 23 24 25 27 29 29 31 31 32 34 35
6 6 6 6 7 7 7 7 8 8 8 9 9 10 11 11 11 12 12 12 12 13 13 14 15 16 17 18 19 20 21 21 23 24 26 27 28 29 30 31 33 34
4 4 5 5 5 5 5 6 6 7 7 8 9 10 11 12 12 12 13 13 13 13 14 14 15 16 16 17 18 19 20 21 22 23 25 26 27 28 29 30 32 34
3 3 3 3 3 4 5 5 5 6 7 9 10 11 12 12 13 14 14 14 14 14 15 15 16 17 17 18 19 20 22 22 23 24 26 27 28 29 30 31 32 34
2 2 3 3 4 5 5 6 6 7 8 9 10 11 12 13 14 14 15 15 16 16 17 17 18 19 19 20 21 22 24 25 26 27 28 29 30 30 31 32 33 34
3 4 4 5 5 6 7 7 7 8 9 10 10 11 12 13 14 15 16 16 17 18 18 19 20 21 21 22 23 25 26 27 28 29 30 31 32 32 32 33 34 35
4 4 4 5 5 6 7 8 8 9 10 11 11 12 12 13 14 15 17 18 19 19 20 21 21 22 23 24 25 26 27 29 30 31 32 33 33 34 34 34 35 36
3 3 4 4 5 6 7 8 9 10 10 11 12 13 14 16 17 19 20 21 22 22 23 24 24 24 25 26 27 28 29 31 32 33 34 35 36 37 37 37 38 38
3 3 4 5 6 7 8 8 9 10 11 12 14 16 18 20 21 23 24 25 25 26 26 26 26 27 27 29 30 31 32 34 35 36 37 39 40 40 40 40 41 41
3 4 5 6 7 8 9 10 11 12 14 15 18 20 22 24 26 27 28 29 29 29 29 30 30 30 31 32 33 34 36 37 38 40 40 42 43 44 44 44 44 45
5 6 7 8 9 11 12 13 15 17 19 21 23 25 28 30 31 31 32 32 33 33 33 33 33 33 34 35 35 35 37 39 40 42 42 43 45 46 47 47 47 48
8 9 11 12 14 16 17 19 21 23 25 27 29 31 33 34 35 35 35 35 35 36 36 36 36 35 36 37 37 37 37 39 41 43 44 44 45 46 47 48 48 49
11 13 15 17 19 20 22 24 26 28 30 32 33 33 34 35 35 36 36 36 37 38 38 39 38 38 38 39 39 39 39 40 43 44 46 47 47 48 48 49 49 50
15 17 19 21 22 24 26 28 29 31 32 33 34 34 34 35 35 36 36 36 37 39 40 41 41 40 41 41 42 42 42 44 45 47 48 49 50 50 51 51 51 51
18 20 22 24 26 27 29 30 31 32 32 33 34 35 35 36 36 37 38 39 39 41 42 44 44 44 44 45 46 46 47 48 49 50 52 53 53 53 54 54 54 54
22 24 26 28 29 30 31 32 32 33 33 34 35 36 37 38 38 40 41 42 43 44 45 47 48 47 48 48 49 50 50 51 52 53 54 55 56 56 56 57 56 56
25 27 28 29 30 30 31 32 32 33 34 35 37 38 38 39 40 41 43 44 45 46 48 50 50 50 50 50 51 51 51 52 53 54 55 56 57 57 58 58 58 56
25 26 27 28 29 29 30 31 32 33 34 35 36 38 40 41 42 43 44 45 46 47 48 50 52 51 51 51 52 52 52 53 54 55 56 57 57 57 58 58 58 57
24 25 26 26 27 28 29 30 31 33 34 35 37 39 41 42 43 45 46 46 46 47 48 50 52 52 52 52 52 52 52 53 53 55 56 57 57 57 58 59 59 58
23 24 25 26 27 28 29 30 32 34 35 37 38 39 41 42 43 45 46 47 47 48 49 50 52 53 53 53 53 53 52 52 53 54 56 57 57 57 59 59 59 58
Wind_Direction
331 321 312 306 301 296 293 291 288 285 283 281 280 278 273 268 263 261 260 259 260 260 261 262 262 263 263 262 261 262 264 266 266 266 266 267 268 268 268 268 269 271
337 330 321 313 308 304 302 301 299 294 288 284 281 278 275 272 267 264 264 264 265 265 266 267 267 266 266 266 265 266 267 268 269 268 267 268 268 268 268 269 269 269
325 320 314 311 308 309 312 313 311 305 296 288 281 276 273 272 272 271 269 269 271 273 274 274 273 272 271 271 270 270 271 272 273 271 270 270 270 269 270 271 270 270
306 304 304 306 308 312 316 318 317 315 311 301 290 282 278 275 275 275 275 276 277 277 278 278 279 278 276 276 274 276 278 278 278 277 275 276 276 274 274 273 273 273
291 295 298 303 309 315 319 322 321 322 322 318 309 300 294 288 285 284 283 284 283 283 282 281 281 281 280 280 278 280 282 282 283 283 281 282 283 281 280 279 277 277
284 290 295 300 306 313 321 324 324 326 328 328 325 320 316 312 307 304 302 300 299 297 294 291 289 288 287 287 287 288 289 289 289 287 285 287 286 285 284 283 282 282
279 283 287 296 304 313 324 325 323 327 330 330 329 327 327 327 324 321 319 316 314 310 305 302 299 297 296 296 296 297 296 296 295 292 291 292 291 290 290 289 287 286
276 286 295 306 315 320 325 324 322 326 330 331 330 329 329 330 329 329 328 327 325 320 315 312 309 307 306 306 305 305 304 303 301 299 298 298 297 297 297 295 293 291
283 301 311 318 324 325 324 322 322 325 330 332 332 332 333 333 333 334 333 333 331 328 324 321 318 317 315 314 313 311 310 309 307 305 304 303 302 302 302 300 297 296
275 292 303 310 313 312 314 315 317 321 325 327 328 329 330 331 331 331 331 330 328 326 324 322 320 319 318 317 315 313 311 310 308 307 306 305 305 305 304 303 301 300
239 259 270 280 288 296 304 310 314 316 318 320 321 323 324 325 325 325 326 325 323 322 321 320 319 318 317 315 313 311 310 309 308 307 306 306 306 306 306 305 303 302
246 262 270 281 291 300 307 313 317 318 319 320 321 322 323 323 324 324 324 324 323 322 321 320 319 318 316 315 313 311 309 308 307 306 306 305 305 305 304 304 303 303
258 271 282 295 303 310 316 320 322 322 322 323 323 325 326 327 327 327 327 326 325 323 322 320 319 318 316 313 312 311 309 308 307 306 306 305 304 304 303 303 303 302
273 291 304 314 318 320 321 322 323 323 323 324 326 327 329 329 328 327 325 324 322 321 319 318 317 316 315 313 312 311 310 308 308 307 307 306 305 305 305 304 304 304
310 322 326 327 326 324 324 324 324 324 324 324 325 325 325 325 324 322 321 319 317 316 315 314 314 313 313 312 311 311 310 309 308 307 307 306 306 305 305 305 305 304
321 322 323 322 321 321 321 322 321 320 319 319 319 320 320 320 319 318 317 315 313 312 311 311 311 312 312 311 311 311 310 309 308 307 307 306 305 305 304 304 304 304
311 311 314 315 316 317 317 317 317 316 315 315 315 316 316 317 316 315 314 313 312 311 311 311 311 312 312 312 312 312 312 311 309 308 307 306 306 305 304 304 304 303
311 313 315 316 316 317 317 317 316 315 315 314 314 314 314 314 314 313 313 313 312 312 312 312 312 313 313 313 314 315 315 313 311 310 309 308 307 306 306 305 304 304
312 313 315 315 315 316 316 315 315 314 314 313 313 313 313 312 312 312 313 313 313 313 312 312 313 314 314 313 313 314 314 313 311 310 309 308 308 308 307 307 307 306
311 312 313 314 314 314 314 314 313 313 313 312 312 313 313 313 313 312 312 313 313 313 312 311 312 313 313 313 312 312 312 312 310 309 308 307 307 307 307 307 308 307
313 314 314 315 315 314 314 314 314 314 314 313 313 314 314 314 314 313 313 313 313 313 312 311 311 313 313 313 313 313 313 312 311 309 308 307 306 306 306 306 306 306
316 316 316 316 315 314 314 314 314 314 315 314 314 314 313 313 313 313 313 313 313 313 312 310 310 312 313 313 313 314 314 312 311 310 308 306 305 304 304 304 304 304
315 315 314 313 313 312 312 313 313 313 314 313 312 312 311 312 311 311 311 311 311 311 311 309 308 309 311 311 311 312 312 310 309 309 307 305 304 303 303 302 301 301
314 313 313 312 312 312 312 312 312 312 312 312 312 311 310 310 310 308 308 308 309 309 309 308 306 306 307 309 309 309 309 308 307 306 304 304 304 303 302 301 299 299
313 313 313 312 312 312 311 312 311 311 311 311 310 310 309 308 308 308 307 306 307 307 306 306 305 304 304 305 306 306 306 305 305 303 301 301 302 301 300 299 299 299
310 311 311 310 311 311 310 311 310 310 310 309 309 309 308 307 307 307 306 305 304 305 304 303 303 302 302 302 302 303 303 304 304 302 301 300 300 298 297 297 297 298